Wind_Speed
16 15 13 11 12 12 12 12 13 13 15 19 20 18 15 15 18 18 17 14 12 10 9 8 8 10 11 12 13 13 14 14 15 15 14 13 12 10 9 8 6 5 4 3
16 13 12 12 13 14 13 14 15 16 18 18 18 16 15 14 17 17 16 14 12 10 8 7 7 8 9 11 12 12 12 13 14 14 13 12 11 9 8 8 7 6 4 3
15 12 13 14 15 15 15 16 17 16 17 16 17 15 14 14 16 16 16 14 11 9 8 7 7 7 8 9 10 10 11 11 12 13 13 12 10 8 8 8 7 6 5 3
14 13 16 17 17 16 16 16 16 14 15 16 15 16 13 15 15 15 14 12 10 7 5 5 6 7 7 8 9 10 10 10 11 11 11 11 9 8 9 8 7 6 5 4
14 15 18 19 17 17 17 16 16 14 15 16 14 12 13 15 15 13 13 12 9 6 5 4 5 6 6 7 9 9 10 10 9 10 10 9 9 9 9 9 8 7 6 4
17 17 18 18 17 18 16 15 15 14 15 16 10 11 14 14 15 14 12 12 10 7 5 4 4 4 6 7 8 9 9 9 10 10 9 9 9 10 9 9 7 7 6 4
18 19 18 18 18 18 15 14 14 15 15 12 8 10 11 13 15 14 12 11 9 7 5 4 3 4 5 7 8 8 9 9 9 9 9 9 9 9 9 8 7 6 5 4
17 17 17 19 19 17 16 15 14 15 14 14 12 10 10 11 12 13 12 11 9 6 5 3 3 4 5 6 7 8 9 10 9 10 9 9 9 9 9 8 7 6 5 4
18 18 17 19 20 18 16 16 15 15 14 15 15 10 10 9 10 12 11 10 8 6 4 3 2 3 4 5 6 7 8 9 9 10 10 9 9 9 8 8 7 6 5 5
20 22 19 18 19 18 17 16 16 16 16 15 15 14 15 10 9 11 11 9 7 6 5 3 2 3 5 6 6 7 8 9 10 10 10 9 9 8 8 7 7 6 6 6
24 25 22 21 21 18 18 18 18 18 17 16 16 17 12 8 11 11 10 9 8 7 6 4 3 4 5 6 7 8 8 9 10 11 11 10 9 9 8 8 8 8 8 9
27 27 27 26 23 20 20 19 19 20 19 18 17 17 16 11 11 10 10 10 9 8 7 6 5 6 6 6 7 8 8 9 10 10 11 10 10 10 10 10 10 10 11 11
29 29 30 27 26 25 23 22 22 22 21 19 17 18 18 16 11 10 10 11 11 9 8 8 7 7 7 7 8 8 9 9 10 10 11 11 11 11 11 11 12 12 13 13
31 32 31 29 27 27 26 25 24 23 22 20 18 19 20 17 15 13 11 12 12 12 10 9 9 8 9 9 9 9 10 11 11 11 11 11 11 12 12 13 14 14 15 15
30 31 30 30 29 28 26 25 25 25 22 21 20 21 20 17 17 16 13 13 13 12 12 11 11 11 10 11 11 11 11 11 12 12 12 12 12 13 14 15 15 16 16 17
28 30 31 31 29 28 27 24 22 20 19 20 22 23 21 21 20 18 17 16 16 15 14 13 12 12 12 12 12 13 13 13 14 14 14 15 15 15 16 16 17 17 18 19
27 28 29 30 30 31 29 24 22 21 21 21 22 23 24 25 21 20 20 20 19 18 16 15 14 14 14 14 14 15 15 15 16 16 17 17 17 17 18 18 19 20 21 21
28 28 28 29 30 32 28 23 23 21 22 23 24 25 26 26 23 23 23 22 21 20 18 17 17 15 15 15 16 16 16 16 17 18 18 19 19 20 21 21 22 22 23 24
26 28 28 28 30 30 26 25 26 24 24 24 25 26 26 25 26 24 24 23 22 21 20 20 19 17 17 17 17 18 18 18 19 19 20 21 22 23 23 24 24 25 25 26
25 27 27 29 31 31 28 29 28 26 28 28 28 27 26 26 26 25 23 22 21 20 20 20 19 19 19 18 19 19 20 21 21 22 23 23 24 25 26 26 27 27 28 29
24 26 25 26 28 28 28 29 28 28 28 27 27 27 28 28 27 24 22 22 21 21 20 20 20 20 20 20 20 20 21 22 23 24 25 25 26 27 27 28 29 30 30 31
23 23 24 25 25 27 28 29 28 28 27 27 26 26 26 27 27 25 25 23 22 22 22 22 22 22 22 22 22 22 23 24 24 25 26 27 27 28 29 30 31 31 32 32
23 22 23 24 24 26 27 29 29 26 27 26 24 24 26 27 26 26 25 25 24 24 24 24 24 25 25 25 25 25 25 26 27 27 28 29 30 31 31 32 33 34 34 34
22 22 21 23 25 25 25 26 26 26 27 24 23 24 24 25 26 26 26 25 25 25 25 25 25 26 26 27 27 28 28 28 28 28 29 31 32 33 34 34 35 35 36 36
22 23 23 22 22 22 22 22 22 23 24 25 25 25 24 25 25 25 25 25 25 25 26 27 27 27 28 28 29 30 30 30 31 32 33 34 34 36 37 37 38 39 39 38
21 20 20 21 21 21 20 21 23 23 23 23 24 24 24 24 24 25 25 26 26 26 27 28 28 29 29 29 30 30 31 32 34 34 35 35 36 38 39 40 40 40 40 40
Wind_Direction
270 270 271 273 277 276 275 273 273 276 283 289 298 304 310 315 320 320 320 316 306 300 285 266 256 249 248 234 227 226 226 228 229 231 233 231 230 231 229 222 214 213 214 227
267 269 267 260 264 266 268 270 269 271 278 285 296 301 305 314 318 323 321 317 316 299 285 267 259 250 247 232 225 228 229 227 226 226 225 223 225 226 217 211 204 200 203 211
264 263 265 262 264 265 265 268 268 270 281 290 296 298 304 312 316 321 323 327 324 300 275 265 259 250 242 229 223 223 221 220 221 221 218 217 222 220 206 198 194 193 191 192
253 245 250 256 262 263 267 269 271 272 274 278 288 298 306 310 316 322 323 324 324 318 291 265 260 244 231 220 219 216 213 216 218 213 211 213 212 202 193 191 186 182 179 174
248 246 249 252 257 260 262 266 267 267 267 269 276 295 299 302 305 319 324 325 324 322 305 275 257 235 221 216 211 206 207 210 206 202 201 198 196 187 184 181 178 173 169 170
243 243 248 254 255 259 261 263 267 270 271 266 270 281 291 302 311 313 317 322 322 319 308 292 264 238 222 214 210 208 208 207 205 201 194 187 183 181 180 179 178 174 174 180
245 241 242 250 253 256 259 262 270 277 287 294 290 271 283 302 305 311 314 315 316 315 310 297 273 237 224 215 209 207 206 198 195 191 183 177 177 180 180 179 179 180 185 192
247 249 245 244 247 251 253 257 265 273 288 296 279 266 279 294 302 309 311 311 309 313 320 305 266 235 219 208 202 200 197 191 187 182 178 178 179 181 181 182 185 191 199 213
239 248 249 248 248 249 250 252 258 267 274 282 286 275 269 282 296 300 302 303 300 299 306 309 266 220 204 200 196 195 194 190 188 184 183 185 184 186 187 190 197 208 222 236
235 240 240 246 249 249 248 250 252 253 263 272 279 274 274 273 288 296 298 297 292 289 291 289 253 207 198 195 194 192 189 189 190 189 191 193 194 197 199 205 214 228 242 256
237 238 241 240 241 238 244 244 244 248 250 262 279 283 275 284 298 297 294 292 287 284 283 276 246 217 207 201 193 186 188 194 196 198 201 204 207 211 216 225 234 244 255 266
234 235 239 241 241 239 239 242 245 251 255 255 265 277 283 281 289 292 288 287 283 278 273 267 248 227 218 212 205 200 200 201 204 209 213 218 221 224 230 236 245 254 263 272
233 233 235 238 238 240 236 233 237 242 250 255 261 277 283 289 285 289 280 279 280 277 271 262 250 237 227 221 217 214 214 213 215 219 223 228 232 235 240 248 256 263 270 276
234 236 234 235 236 235 235 233 232 235 241 246 250 262 274 278 280 280 276 279 276 274 269 261 252 245 240 234 227 225 226 225 225 227 230 237 242 246 253 260 265 270 274 279
236 237 238 236 238 237 239 236 235 232 236 238 242 252 262 269 270 268 274 276 274 270 267 259 254 250 244 240 236 235 235 234 235 237 241 247 252 257 262 266 270 274 277 282
238 236 236 235 237 243 248 245 242 239 242 244 241 246 257 266 262 263 270 272 272 269 264 258 253 250 246 243 240 240 242 243 245 247 250 253 256 260 264 269 273 277 281 284
240 239 237 235 237 239 242 242 247 246 241 244 246 248 251 253 252 258 263 266 268 267 262 257 252 249 248 247 246 245 246 247 248 250 253 255 259 263 267 271 276 279 282 284
239 240 238 239 240 242 237 241 244 244 243 244 246 246 249 251 254 257 260 263 262 262 259 256 253 250 250 251 251 251 252 253 255 255 258 261 264 267 270 274 277 280 281 284
243 244 240 240 241 241 236 237 237 237 238 238 241 245 250 252 258 257 260 259 257 257 255 255 255 254 254 254 254 255 256 258 260 262 263 266 268 271 273 275 278 280 282 283
245 243 242 242 242 241 235 235 233 235 238 238 239 244 246 251 253 254 257 256 253 255 254 254 254 255 257 257 258 260 261 262 264 266 267 269 272 274 275 277 279 281 283 284
241 242 243 243 244 243 239 236 233 234 238 236 237 243 246 249 250 250 253 252 250 254 253 253 256 258 259 258 260 263 265 266 267 270 272 273 275 275 276 278 279 280 283 285
243 245 243 241 243 244 241 240 236 235 235 236 238 243 248 247 247 249 251 252 251 252 254 255 257 258 258 259 261 264 267 268 269 272 273 274 275 275 277 279 280 281 283 285
244 245 242 240 242 243 244 245 242 239 237 238 243 245 247 245 245 248 249 252 253 253 254 256 257 258 259 260 261 265 269 270 272 274 274 274 275 276 277 279 282 282 283 285
248 248 249 245 243 243 244 247 246 244 241 243 246 245 246 244 244 246 250 252 254 255 256 257 257 259 261 261 262 264 268 270 271 273 275 276 278 278 279 280 282 283 283 285
254 251 251 249 245 243 240 244 243 241 243 243 244 246 247 245 246 248 252 255 256 257 258 258 260 261 262 263 265 266 267 269 271 272 274 275 278 280 280 280 281 281 281 285
261 258 254 251 250 251 251 250 246 245 244 244 244 243 244 246 248 251 253 256 258 260 260 260 261 262 264 265 267 267 268 270 272 273 276 278 280 281 281 280 281 283 284 286
Height
5860 5862 5862 5863 5864 5865 5865 5866 5865 5865 5864 5862 5859 5856 5853 5850 5847 5844 5840 5837 5836 5835 5834 5834 5834 5835 5836 5837 5838 5840 5844 5847 5850 5852 5855 5858 5860 5862 5864 5866 5867 5868 5870 5871
5857 5858 5859 5860 5861 5862 5862 5862 5862 5862 5860 5858 5856 5854 5851 5848 5845 5843 5840 5837 5835 5834 5833 5833 5833 5834 5834 5835 5837 5840 5842 5845 5848 5850 5853 5856 5858 5861 5863 5864 5866 5867 5869 5870
5853 5855 5856 5857 5858 5859 5859 5859 5858 5858 5857 5855 5853 5851 5849 5847 5844 5842 5839 5837 5835 5833 5832 5832 5833 5833 5834 5835 5837 5839 5841 5844 5846 5849 5852 5854 5857 5859 5862 5863 5865 5866 5868 5869
5849 5851 5852 5854 5855 5855 5855 5855 5855 5854 5853 5852 5851 5848 5846 5844 5842 5840 5838 5836 5834 5833 5832 5832 5832 5833 5834 5835 5837 5839 5841 5843 5845 5848 5850 5853 5856 5858 5860 5862 5864 5866 5867 5869
5845 5847 5848 5849 5851 5851 5851 5851 5851 5850 5849 5848 5847 5846 5845 5843 5839 5839 5837 5834 5833 5833 5832 5832 5832 5832 5834 5835 5837 5839 5841 5843 5845 5847 5850 5852 5855 5858 5860 5862 5864 5865 5867 5868
5840 5843 5844 5846 5847 5847 5847 5848 5847 5846 5845 5843 5843 5843 5842 5840 5838 5837 5837 5835 5833 5832 5832 5832 5832 5832 5833 5835 5837 5839 5841 5843 5845 5847 5849 5852 5854 5857 5859 5861 5863 5865 5867 5868
5836 5838 5840 5841 5842 5843 5844 5844 5844 5843 5841 5839 5839 5840 5840 5838 5837 5836 5836 5835 5833 5832 5832 5831 5831 5832 5833 5834 5836 5838 5840 5843 5845 5847 5849 5852 5854 5857 5859 5861 5863 5865 5866 5867
5832 5834 5836 5837 5838 5839 5840 5841 5841 5841 5839 5837 5836 5836 5837 5836 5836 5835 5834 5834 5833 5832 5831 5831 5831 5831 5832 5834 5836 5837 5840 5842 5845 5847 5849 5852 5854 5856 5858 5860 5862 5864 5865 5866
5829 5831 5832 5832 5833 5835 5836 5837 5838 5838 5837 5836 5834 5832 5832 5834 5834 5834 5833 5833 5832 5832 5831 5831 5831 5831 5832 5834 5835 5837 5839 5842 5844 5847 5849 5852 5854 5856 5858 5860 5861 5863 5864 5865
5823 5825 5827 5827 5829 5830 5833 5834 5835 5835 5834 5833 5832 5830 5829 5830 5830 5832 5832 5832 5832 5831 5831 5831 5830 5831 5832 5834 5835 5836 5839 5841 5844 5846 5849 5851 5853 5855 5857 5859 5860 5862 5863 5864
5817 5819 5821 5823 5824 5826 5829 5830 5830 5830 5830 5831 5829 5829 5825 5827 5828 5829 5830 5831 5831 5830 5830 5830 5830 5831 5832 5833 5835 5836 5839 5841 5843 5846 5848 5850 5852 5854 5856 5857 5859 5860 5861 5862
5811 5814 5815 5817 5819 5821 5823 5825 5827 5827 5827 5828 5827 5828 5824 5822 5826 5827 5828 5828 5829 5829 5829 5829 5830 5831 5832 5833 5835 5836 5838 5840 5842 5845 5847 5849 5851 5853 5854 5855 5857 5858 5859 5859
5802 5805 5808 5812 5816 5816 5817 5819 5821 5822 5823 5824 5825 5826 5823 5822 5822 5824 5826 5826 5827 5827 5828 5828 5829 5830 5831 5832 5834 5836 5837 5839 5841 5843 5845 5847 5849 5850 5852 5853 5854 5855 5856 5856
5796 5798 5802 5806 5807 5808 5810 5813 5815 5817 5818 5820 5822 5822 5821 5819 5820 5821 5822 5824 5825 5825 5826 5827 5828 5828 5830 5831 5833 5834 5836 5837 5839 5841 5843 5845 5846 5848 5849 5850 5851 5852 5852 5853
5789 5792 5795 5798 5800 5801 5802 5805 5808 5810 5813 5815 5817 5818 5816 5815 5816 5818 5818 5821 5822 5823 5824 5825 5826 5827 5828 5829 5831 5832 5834 5835 5837 5839 5840 5842 5844 5845 5846 5847 5848 5848 5848 5848
5781 5784 5788 5791 5794 5795 5796 5799 5802 5805 5808 5810 5812 5813 5813 5813 5813 5814 5817 5818 5820 5821 5821 5822 5823 5824 5826 5827 5828 5830 5831 5833 5834 5836 5837 5839 5840 5841 5842 5843 5843 5844 5843 5843
5774 5778 5781 5785 5788 5790 5792 5795 5797 5800 5802 5805 5806 5809 5809 5809 5808 5811 5813 5815 5816 5817 5818 5819 5820 5822 5823 5824 5825 5827 5828 5829 5831 5832 5834 5835 5836 5837 5838 5838 5839 5839 5838 5838
5769 5771 5774 5778 5782 5782 5789 5790 5792 5794 5796 5799 5799 5802 5803 5803 5805 5807 5809 5811 5812 5813 5814 5815 5817 5818 5819 5821 5822 5823 5825 5826 5827 5828 5829 5830 5831 5832 5832 5833 5833 5833 5832 5832
5764 5765 5769 5772 5774 5776 5782 5785 5786 5787 5789 5791 5793 5795 5797 5799 5800 5802 5804 5806 5807 5809 5810 5811 5813 5814 5816 5817 5818 5819 5821 5822 5823 5824 5825 5825 5826 5826 5826 5826 5826 5826 5826 5825
5759 5761 5764 5766 5767 5770 5775 5776 5777 5780 5782 5785 5787 5788 5791 5793 5795 5797 5799 5801 5802 5803 5805 5807 5808 5810 5811 5812 5814 5814 5816 5816 5817 5818 5819 5819 5820 5820 5820 5820 5819 5819 5818 5817
5753 5754 5756 5759 5761 5764 5767 5768 5771 5774 5775 5777 5779 5782 5785 5787 5790 5792 5793 5795 5797 5799 5800 5802 5804 5805 5806 5807 5808 5809 5810 5810 5811 5811 5812 5812 5812 5812 5812 5812 5811 5810 5810 5809
5747 5749 5751 5752 5755 5759 5759 5762 5764 5766 5767 5770 5772 5775 5778 5780 5782 5785 5788 5789 5791 5793 5795 5797 5798 5800 5800 5801 5802 5803 5804 5804 5804 5804 5805 5805 5805 5805 5805 5804 5803 5802 5800 5799
5742 5744 5744 5747 5750 5751 5753 5754 5756 5758 5759 5762 5765 5769 5772 5774 5776 5778 5780 5783 5785 5787 5789 5790 5792 5793 5794 5795 5796 5797 5797 5797 5797 5798 5798 5798 5797 5797 5796 5796 5794 5793 5791 5790
5737 5737 5739 5741 5743 5744 5746 5746 5747 5750 5752 5755 5759 5762 5765 5768 5770 5772 5774 5777 5779 5780 5782 5784 5785 5786 5788 5788 5789 5789 5789 5789 5790 5790 5789 5789 5788 5788 5787 5786 5785 5783 5782 5781
5732 5733 5735 5736 5737 5738 5739 5741 5743 5745 5748 5751 5754 5756 5759 5761 5764 5766 5768 5770 5772 5773 5775 5776 5778 5779 5780 5781 5781 5781 5781 5781 5781 5781 5781 5780 5779 5778 5777 5776 5775 5773 5772 5770
5728 5729 5730 5730 5732 5733 5734 5735 5738 5740 5742 5744 5747 5750 5753 5755 5757 5759 5761 5763 5765 5766 5768 5769 5770 5771 5772 5772 5772 5772 5773 5773 5772 5772 5771 5770 5769 5768 5767 5765 5764 5762 5761 5759